This is the latest recevied weather packets stored in our database for station/object N8SHA. If no packets are shown the sender has not sent any weather packets the latest 10 day(s).
| Time | Temp. | Humidity | Pressure | Rain* | Wind** | Luminosity | Snow |
|---|---|---|---|---|---|---|---|
| 1777990851 | 10° C | 75% | 1005.8 hPa | 0 mm | - | 109 W/m² | - |
| 1777990548 | 10° C | 75% | 1005.8 hPa | 0 mm | - | 106 W/m² | - |
| 1777989942 | 10.56° C | 76% | 1006.1 hPa | 0 mm | - | 190 W/m² | - |
| 1777989639 | 10° C | 77% | 1006 hPa | 0 mm | - | 180 W/m² | - |
| 1777989335 | 10° C | 77% | 1005.9 hPa | 0 mm | - | 189 W/m² | - |
| 1777989031 | 10° C | 78% | 1005.9 hPa | 0 mm | - | 128 W/m² | - |
| 1777988727 | 10° C | 79% | 1006.5 hPa | 0 mm | - | 59 W/m² | - |
| 1777988425 | 10° C | 79% | 1005.9 hPa | 0 mm | - | 66 W/m² | - |
| 1777988122 | 10.56° C | 78% | 1005.6 hPa | 0 mm | - | 105 W/m² | - |
| 1777987817 | 10.56° C | 80% | 1005.2 hPa | 0 mm | - | 186 W/m² | - |
| 1777987514 | 10° C | 79% | 1004.8 hPa | 0 mm | - | 160 W/m² | - |
| 1777987212 | 10° C | 79% | 1004.9 hPa | 0 mm | - | 111 W/m² | - |
| 1777986908 | 10° C | 78% | 1004.8 hPa | 0 mm | - | 54 W/m² | - |
| 1777986606 | 10° C | 77% | 1005.2 hPa | 0 mm | - | 20 W/m² | - |
| 1777986304 | 10° C | 78% | 1004.6 hPa | 0 mm | - | 31 W/m² | - |
| 1777986002 | 10.56° C | 80% | 1004.2 hPa | 0 mm | - | 45 W/m² | - |
| 1777985699 | 10.56° C | 79% | 1004.2 hPa | 0 mm | - | 55 W/m² | - |
| 1777985395 | 10.56° C | 79% | 1004.1 hPa | 0 mm | - | 41 W/m² | - |
| 1777985092 | 10.56° C | 79% | 1004.3 hPa | 0 mm | - | 42 W/m² | - |
| 1777984788 | 10.56° C | 77% | 1004.3 hPa | 0 mm | - | 48 W/m² | - |
| 1777984484 | 11.11° C | 77% | 1004.3 hPa | 0 mm | - | 63 W/m² | - |
| 1777984181 | 11.11° C | 76% | 1004.4 hPa | 0 mm | - | 111 W/m² | - |
| 1777983878 | 11.11° C | 77% | 1004 hPa | 0 mm | - | 138 W/m² | - |
| 1777983575 | 11.11° C | 77% | 1003.8 hPa | 0 mm | - | 138 W/m² | - |
| 1777983272 | 11.11° C | 76% | 1003.7 hPa | 0 mm | - | 145 W/m² | - |
* Rain latest hour (hover to see other rain measurements)
** Current wind speed in m/s (hover to see current wind gust speed)